Wind_Speed
46 45 46 46 43 44 43 42 41 40 38 35 34 34 33 33 32 30 29 27 27 27 28 28 27 26 26 26 26 25 26 26 23
52 52 52 52 50 48 47 45 45 44 43 41 39 38 37 37 36 36 32 32 31 30 30 31 31 31 29 29 28 24 28 30 25
58 56 57 56 54 51 49 50 50 49 47 46 45 43 41 39 39 39 38 37 35 35 34 34 32 32 32 32 31 28 31 32 30
63 62 60 58 58 56 53 52 54 52 52 49 49 47 45 44 44 42 42 42 41 39 39 39 38 36 35 33 34 36 36 28 30
52 52 53 58 61 61 59 52 59 58 58 58 56 52 52 50 47 47 48 47 44 44 43 42 41 40 40 39 36 37 38 35 33
48 48 48 50 53 53 55 58 59 61 64 63 60 57 56 54 55 54 53 52 51 48 48 46 47 44 44 43 42 41 41 41 38
45 42 43 46 50 51 53 53 54 60 64 64 62 61 62 61 60 59 57 56 54 52 51 50 50 51 49 49 46 44 42 42 43
46 46 45 45 44 46 47 49 48 49 55 62 66 69 71 69 65 63 61 60 61 60 59 57 56 55 54 53 53 48 45 45 50
53 51 52 52 49 48 46 47 47 48 48 49 51 59 59 64 66 66 66 64 64 64 64 63 62 61 61 59 57 58 56 55 52
58 56 57 57 56 55 52 49 48 49 50 50 49 48 49 55 60 65 69 70 70 69 69 69 68 68 65 64 63 62 60 57 54
61 60 55 62 60 59 56 55 53 55 56 58 56 51 51 50 49 51 53 57 63 65 68 70 72 74 74 70 67 66 63 61 55
70 65 65 60 58 61 59 58 56 57 57 60 59 57 54 54 49 48 45 48 49 54 55 55 56 65 70 74 73 71 69 65 61
77 74 70 72 67 61 64 64 64 64 60 62 60 56 57 55 55 54 52 52 52 51 53 55 55 53 52 59 70 75 71 67 65
80 81 76 78 79 71 68 66 64 66 62 60 62 58 57 59 56 53 56 56 55 55 58 59 56 53 54 54 58 65 70 70 68
87 85 83 85 87 81 76 72 72 71 66 64 63 61 61 62 60 57 60 58 57 56 56 56 55 54 53 55 58 60 64 68 70
91 91 90 91 94 81 81 81 78 77 74 73 69 68 69 69 66 63 64 61 61 60 60 60 56 56 54 56 56 54 59 64 66
91 92 93 94 95 87 85 84 81 80 81 78 74 73 73 72 73 69 67 69 68 63 61 62 61 60 58 59 57 54 55 58 59
94 94 91 92 94 92 90 86 84 84 84 79 81 80 77 78 76 75 70 72 69 67 66 68 67 66 64 59 61 60 61 60 56
98 98 95 95 99 96 90 89 86 88 88 85 84 87 85 83 81 78 77 76 76 73 73 73 71 69 69 63 63 65 65 62 62
106 105 104 102 102 102 95 91 83 88 91 94 89 91 90 86 85 84 84 82 82 80 78 76 75 74 73 71 69 69 69 69 71
Wind_Direction
262 267 269 268 267 265 265 265 267 270 272 274 278 277 279 281 280 282 283 283 286 290 298 300 302 304 308 309 309 309 318 312 306
262 265 265 263 263 266 262 264 264 266 268 269 272 274 275 277 279 279 281 282 283 285 288 293 298 300 301 305 304 301 308 321 310
260 262 263 263 260 262 262 264 265 264 265 267 270 270 269 272 275 276 277 280 284 285 288 287 288 293 296 298 299 299 301 309 312
261 260 260 261 260 261 261 263 265 266 266 266 269 269 270 269 270 272 275 276 279 283 285 288 287 289 289 293 296 299 304 311 317
263 263 262 258 259 260 259 260 262 264 267 270 269 268 268 270 271 272 272 271 272 275 278 281 282 285 288 290 288 292 297 303 303
269 266 262 259 257 256 258 258 260 262 262 265 267 267 268 269 269 270 273 275 274 273 275 277 279 280 283 282 283 284 288 292 296
272 269 271 266 261 258 257 258 259 260 259 260 261 262 266 268 270 269 270 272 273 272 275 277 278 278 279 281 281 282 285 288 292
263 264 261 266 272 270 269 265 263 262 263 260 262 263 265 265 266 267 268 269 270 273 275 274 277 278 280 280 279 281 284 285 294
259 259 263 264 263 266 268 270 270 269 268 269 266 263 265 264 265 265 265 269 271 272 273 274 274 276 277 277 279 281 283 286 290
255 257 258 259 263 266 268 266 268 270 270 271 273 270 268 268 267 266 265 265 269 271 272 275 277 278 278 277 278 279 280 283 286
255 253 257 256 257 261 263 263 266 270 271 275 276 272 276 277 273 270 270 269 269 269 271 271 273 276 277 278 278 279 281 282 284
250 251 252 252 252 255 256 260 261 265 268 270 274 278 279 280 278 275 278 276 274 274 274 275 280 274 273 274 275 278 279 280 283
245 247 249 249 249 250 253 255 258 260 263 268 271 272 276 276 278 281 283 286 285 278 279 281 283 281 281 277 273 271 274 278 280
245 245 249 247 246 247 252 253 258 257 258 264 267 268 270 274 277 277 282 283 283 284 284 284 282 283 280 279 277 272 268 269 273
248 245 248 248 246 245 246 254 256 256 256 259 262 266 269 272 275 275 275 277 279 280 282 284 284 287 286 280 281 274 272 269 268
248 248 249 252 251 246 247 250 253 251 256 260 260 263 266 267 270 269 272 275 277 278 281 283 285 288 288 283 282 280 272 273 271
249 249 249 249 253 251 251 248 250 253 255 258 259 259 261 263 265 268 272 273 275 277 280 283 286 290 289 290 288 283 279 276 275
249 250 250 251 253 254 253 250 248 249 252 256 258 258 259 259 263 265 270 271 272 275 278 281 285 290 292 291 288 284 280 277 273
247 248 250 251 253 254 254 254 251 249 252 253 257 258 257 258 260 262 267 268 271 274 276 280 282 286 291 290 288 284 283 275 274
246 247 247 248 250 253 255 256 253 252 251 250 253 256 259 259 259 260 263 266 268 271 274 276 278 281 286 287 287 282 279 275 273
Height
10870 10872 10873 10873 10874 10875 10875 10876 10876 10877 10878 10879 10880 10881 10881 10881 10880 10880 10880 10879 10878 10877 10877 10876 10875 10873 10872 10870 10868 10867 10865 10862 10860
10862 10864 10865 10866 10866 10868 10868 10869 10870 10871 10871 10873 10874 10875 10876 10876 10876 10875 10875 10875 10874 10873 10873 10872 10871 10869 10868 10867 10866 10865 10862 10859 10857
10854 10857 10857 10858 10859 10861 10863 10861 10862 10864 10864 10866 10867 10869 10870 10870 10870 10870 10870 10869 10869 10868 10867 10867 10866 10865 10864 10863 10861 10860 10859 10856 10854
10845 10848 10849 10851 10851 10853 10855 10856 10854 10855 10857 10859 10860 10862 10863 10864 10864 10864 10865 10864 10863 10863 10862 10862 10861 10860 10859 10859 10857 10855 10854 10853 10849
10835 10837 10839 10842 10843 10843 10846 10849 10847 10848 10849 10849 10852 10854 10855 10855 10856 10857 10857 10857 10857 10856 10856 10855 10855 10854 10854 10853 10852 10851 10849 10848 10846
10825 10827 10829 10831 10832 10833 10835 10837 10839 10839 10840 10841 10842 10843 10845 10846 10847 10848 10849 10848 10848 10848 10848 10849 10848 10847 10846 10845 10845 10844 10844 10842 10841
10816 10817 10818 10820 10822 10822 10824 10826 10829 10828 10829 10830 10831 10832 10834 10836 10837 10838 10839 10840 10840 10840 10840 10840 10840 10840 10840 10839 10838 10837 10836 10836 10835
10809 10810 10810 10811 10811 10812 10815 10816 10819 10818 10818 10819 10821 10822 10824 10824 10826 10827 10828 10829 10830 10830 10831 10831 10831 10831 10831 10831 10831 10830 10829 10829 10829
10800 10802 10802 10803 10802 10803 10804 10805 10806 10808 10808 10808 10810 10811 10811 10812 10815 10817 10818 10819 10819 10819 10820 10820 10821 10821 10822 10822 10821 10821 10821 10821 10821
10789 10791 10793 10793 10794 10794 10795 10796 10795 10796 10797 10799 10800 10801 10802 10803 10804 10805 10806 10808 10809 10809 10810 10810 10810 10810 10811 10811 10811 10811 10812 10812 10813
10776 10779 10781 10783 10785 10786 10786 10785 10785 10785 10786 10786 10788 10790 10793 10793 10794 10794 10794 10795 10797 10798 10798 10799 10799 10798 10797 10798 10799 10799 10800 10801 10803
10762 10764 10768 10771 10773 10774 10773 10774 10775 10774 10775 10775 10777 10779 10781 10782 10784 10785 10786 10786 10786 10786 10786 10787 10786 10785 10785 10786 10786 10787 10787 10790 10791
10746 10749 10751 10755 10757 10760 10761 10763 10765 10765 10765 10764 10767 10768 10770 10771 10773 10773 10773 10775 10775 10775 10775 10775 10775 10773 10772 10773 10773 10774 10775 10777 10779
10730 10733 10736 10737 10740 10743 10747 10750 10752 10753 10754 10755 10756 10758 10759 10759 10763 10764 10763 10764 10763 10763 10763 10763 10763 10761 10760 10760 10759 10759 10761 10763 10766
10711 10717 10718 10718 10721 10728 10736 10737 10738 10740 10741 10743 10746 10748 10749 10750 10752 10753 10752 10752 10752 10752 10753 10752 10750 10749 10747 10747 10746 10745 10746 10748 10751
10694 10697 10700 10700 10702 10717 10721 10723 10723 10726 10727 10732 10735 10737 10739 10739 10740 10738 10739 10743 10743 10742 10742 10741 10739 10738 10737 10735 10734 10733 10733 10734 10737
10672 10677 10681 10683 10686 10697 10702 10707 10709 10711 10711 10717 10720 10725 10725 10726 10723 10729 10728 10727 10728 10730 10729 10727 10727 10725 10725 10722 10721 10721 10722 10722 10722
10651 10654 10663 10667 10669 10674 10682 10686 10692 10695 10695 10699 10703 10707 10710 10709 10711 10713 10714 10713 10712 10713 10714 10712 10712 10711 10711 10710 10709 10708 10708 10709 10711
10627 10633 10641 10648 10650 10653 10661 10666 10673 10676 10678 10680 10684 10685 10690 10694 10698 10697 10697 10698 10697 10698 10698 10698 10698 10698 10698 10696 10696 10694 10693 10694 10698
10598 10610 10619 10625 10628 10630 10638 10644 10652 10655 10658 10659 10664 10666 10670 10676 10678 10680 10680 10682 10681 10682 10682 10683 10685 10685 10684 10683 10682 10680 10681 10681 10682